This demonstration page uses our WeatherBlox Daily Observations layout. Learn more.

Left ArrowRight Arrow

39.08367, -84.50855

Hourly Observations for July 13, 2020

Temp ( °F °C ) Dew Point ( °F °C ) Humidity (%) Winds ( mph kmh ) Pressure ( in mb ) Visibility ( mi km ) Precip ( " mm )
12:53 am 00:53 Clear 64 17.8 62 16.7 93 93 N N/A 29.89 1012 10 16 N/A
1:53 am 01:53 Clear 63 17.2 61 16.1 93 93 NE 3 6 29.89 1012 10 16 N/A
2:53 am 02:53 Clear 63 17.2 61 16.1 93 93 N N/A 29.89 1012 10 16 N/A
3:53 am 03:53 Clear 62 16.7 60 15.6 93 93 N N/A 29.88 1012 8 13 N/A
4:53 am 04:53 Clear 62 16.7 61 16.1 96 96 N N/A 29.89 1012 10 16 N/A
5:14 am 05:14 Mostly Clear with Mist and Fog 61 16.1 60 15.6 97 97 N N/A 29.91 1013 3 4 N/A
5:19 am 05:19 Mostly Cloudy with Mist and Fog 62 16.7 61 16.1 96 96 N N/A 29.90 1013 1 2 N/A
5:25 am 05:25 Mostly Cloudy with Fog 61 16.1 60 15.6 97 97 N N/A 29.91 1013 1 1 N/A
5:32 am 05:32 Mostly Cloudy with Fog 61 16.1 60 15.6 97 97 N N/A 29.91 1013 1 1 N/A
5:39 am 05:39 Cloudy with Mist and Fog 62 16.7 61 16.1 96 96 N N/A 29.90 1013 2 3 N/A
5:41 am 05:41 Cloudy with Mist and Fog 62 16.7 61 16.1 96 96 N N/A 29.90 1013 3 5 N/A
5:53 am 05:53 Cloudy 63 17.2 61 16.1 93 93 N N/A 29.90 1013 10 16 N/A
6:12 am 06:12 Cloudy with Mist and Fog 63 17.2 62 16.7 97 97 N N/A 29.91 1013 2 3 N/A
6:25 am 06:25 Mostly Cloudy with Fog 63 17.2 62 16.7 97 97 N N/A 29.91 1013 0 0 N/A
6:53 am 06:53 Mostly Cloudy with Fog 63 17.2 63 17.2 100 100 N N/A 29.91 1013 N/A N/A
7:53 am 07:53 Mostly Cloudy with Fog 64 17.8 64 17.8 100 100 N N/A 29.93 1013 0 0 N/A
8:25 am 08:25 Partly Cloudy with Mist and Fog 66 18.9 65 18.3 96 96 N N/A 29.94 1014 4 6 N/A
8:53 am 08:53 Sunny 70 21.1 65 18.3 84 84 N N/A 29.93 1014 10 16 N/A
9:53 am 09:53 Sunny 73 22.8 65 18.3 76 76 N N/A 29.94 1014 10 16 N/A
10:53 am 10:53 Partly Cloudy 78 25.6 65 18.3 64 64 WNW 6 9 29.95 1014 10 16 N/A
11:53 am 11:53 Mostly Cloudy 80 26.7 65 18.3 60 60 VRB 6 9 29.95 1014 10 16 N/A
12:53 pm 12:53 Partly Cloudy 81 27.2 61 16.1 51 51 W 10 17 29.95 1014 10 16 N/A
1:53 pm 13:53 Mostly Sunny 83 28.3 60 15.6 46 46 VRB 5 7 29.94 1014 10 16 N/A
2:53 pm 14:53 Partly Cloudy 84 28.9 62 16.7 48 48 W 8 13 29.94 1014 10 16 N/A
3:53 pm 15:53 Partly Cloudy 85 29.4 62 16.7 46 46 WSW 9 15 29.94 1014 10 16 N/A
4:53 pm 16:53 Mostly Sunny 82 27.8 60 15.6 47 47 W 3 6 29.93 1014 10 16 N/A
5:53 pm 17:53 Cloudy 85 29.4 62 16.7 46 46 W 8 13 29.93 1014 10 16 N/A
6:53 pm 18:53 Mostly Cloudy 82 27.8 61 16.1 49 49 NNW 9 15 29.93 1014 10 16 N/A
7:53 pm 19:53 Mostly Sunny 83 28.3 62 16.7 49 49 NW 6 9 29.93 1014 10 16 N/A
8:53 pm 20:53 Mostly Cloudy 80 26.7 61 16.1 52 52 NNW 8 13 29.94 1014 10 16 N/A
9:53 pm 21:53 Mostly Cloudy 78 25.6 60 15.6 54 54 N 7 11 29.96 1014 10 16 N/A
10:53 pm 22:53 Partly Cloudy 73 22.8 63 17.2 71 71 N N/A 29.97 1015 10 16 N/A
11:53 pm 23:53 Partly Cloudy 70 21.1 64 17.8 82 82 N N/A 29.98 1015 10 16 N/A

Powered by AerisWeather